Year,Month,Day,Hour,Minute,Value (Times are PST for temperature in C)
2007,05,31,00,00,18.10
2007,05,31,00,01,18.10
2007,05,31,00,02,18.10
2007,05,31,00,03,18.00
2007,05,31,00,04,18.00
2007,05,31,00,05,18.00
2007,05,31,00,06,18.00
2007,05,31,00,07,17.90
2007,05,31,00,08,17.90
2007,05,31,00,09,17.90
2007,05,31,00,10,17.90
2007,05,31,00,11,17.90
2007,05,31,00,12,17.80
2007,05,31,00,13,17.80
2007,05,31,00,14,17.80
2007,05,31,00,15,17.70
2007,05,31,00,16,17.70
2007,05,31,00,17,17.70
2007,05,31,00,18,17.60
2007,05,31,00,19,17.60
2007,05,31,00,20,17.60
2007,05,31,00,21,17.60
2007,05,31,00,22,17.60
2007,05,31,00,23,17.50
2007,05,31,00,24,17.50
2007,05,31,00,25,17.50
2007,05,31,00,26,17.40
2007,05,31,00,27,17.40
2007,05,31,00,28,17.30
2007,05,31,00,29,17.30
2007,05,31,00,30,17.30
2007,05,31,00,31,17.20
2007,05,31,00,32,17.20
2007,05,31,00,33,17.10
2007,05,31,00,34,17.10
2007,05,31,00,35,17.00
2007,05,31,00,36,17.00
2007,05,31,00,37,16.90
2007,05,31,00,38,16.90
2007,05,31,00,39,16.80
2007,05,31,00,40,16.80
2007,05,31,00,41,16.80
2007,05,31,00,42,16.80
2007,05,31,00,43,16.80
2007,05,31,00,44,16.80
2007,05,31,00,45,16.80
2007,05,31,00,46,16.80
2007,05,31,00,47,16.80
2007,05,31,00,48,16.80
2007,05,31,00,49,16.80
2007,05,31,00,50,16.90
2007,05,31,00,51,16.90
2007,05,31,00,52,16.90
2007,05,31,00,53,17.00
2007,05,31,00,54,17.00
2007,05,31,00,55,17.10
2007,05,31,00,56,17.10
2007,05,31,00,57,17.10
2007,05,31,00,58,17.10
2007,05,31,00,59,17.10
2007,05,31,01,00,17.10
2007,05,31,01,01,17.10
2007,05,31,01,02,17.10
2007,05,31,01,03,17.20
2007,05,31,01,04,17.20
2007,05,31,01,05,17.20
2007,05,31,01,06,17.20
2007,05,31,01,07,17.20
2007,05,31,01,08,17.20
2007,05,31,01,09,17.20
2007,05,31,01,10,17.20
2007,05,31,01,11,17.20
2007,05,31,01,12,17.20
2007,05,31,01,13,17.20
2007,05,31,01,14,17.10
2007,05,31,01,15,17.10
2007,05,31,01,16,17.10
2007,05,31,01,17,17.10
2007,05,31,01,18,17.00
2007,05,31,01,19,17.00
2007,05,31,01,20,16.90
2007,05,31,01,21,16.90
2007,05,31,01,22,16.90
2007,05,31,01,23,16.90
2007,05,31,01,24,16.90
2007,05,31,01,25,16.80
2007,05,31,01,26,16.80
2007,05,31,01,27,16.80
2007,05,31,01,28,16.80
2007,05,31,01,29,16.80
2007,05,31,01,30,16.70
2007,05,31,01,31,16.70
2007,05,31,01,32,16.70
2007,05,31,01,33,16.60
2007,05,31,01,34,16.50
2007,05,31,01,35,16.50
2007,05,31,01,36,16.40
2007,05,31,01,37,16.40
2007,05,31,01,38,16.30
2007,05,31,01,39,16.30
2007,05,31,01,40,16.30
2007,05,31,01,41,16.20
2007,05,31,01,42,16.20
2007,05,31,01,43,16.10
2007,05,31,01,44,16.10
2007,05,31,01,45,16.10
2007,05,31,01,46,16.00
2007,05,31,01,47,16.00
2007,05,31,01,48,15.90
2007,05,31,01,49,15.80
2007,05,31,01,50,15.80
2007,05,31,01,51,15.80
2007,05,31,01,52,15.80
2007,05,31,01,53,15.80
2007,05,31,01,54,15.80
2007,05,31,01,55,15.80
2007,05,31,01,56,15.70
2007,05,31,01,57,15.70
2007,05,31,01,58,15.70
2007,05,31,01,59,15.70
2007,05,31,02,00,15.70
2007,05,31,02,01,15.80
2007,05,31,02,02,15.80
2007,05,31,02,03,15.80
2007,05,31,02,04,15.80
2007,05,31,02,05,15.70
2007,05,31,02,06,15.70
2007,05,31,02,07,15.70
2007,05,31,02,08,15.70
2007,05,31,02,09,15.70
2007,05,31,02,10,15.70
2007,05,31,02,11,15.80
2007,05,31,02,12,15.80
2007,05,31,02,13,15.80
2007,05,31,02,14,15.80
2007,05,31,02,15,15.80
2007,05,31,02,16,15.90
2007,05,31,02,17,15.90
2007,05,31,02,18,15.90
2007,05,31,02,19,15.90
2007,05,31,02,20,15.90
2007,05,31,02,21,15.90
2007,05,31,02,22,15.90
2007,05,31,02,23,15.80
2007,05,31,02,24,15.80
2007,05,31,02,25,15.80
2007,05,31,02,26,15.70
2007,05,31,02,27,15.70
2007,05,31,02,28,15.70
2007,05,31,02,29,15.70
2007,05,31,02,30,15.60
2007,05,31,02,31,15.60
2007,05,31,02,32,15.60
2007,05,31,02,33,15.50
2007,05,31,02,34,15.50
2007,05,31,02,35,15.40
2007,05,31,02,36,15.30
2007,05,31,02,37,15.30
2007,05,31,02,38,15.20
2007,05,31,02,39,15.20
2007,05,31,02,40,15.10
2007,05,31,02,41,15.00
2007,05,31,02,42,15.00
2007,05,31,02,43,15.00
2007,05,31,02,44,15.00
2007,05,31,02,45,14.90
2007,05,31,02,46,14.80
2007,05,31,02,47,14.80
2007,05,31,02,48,14.70
2007,05,31,02,49,14.60
2007,05,31,02,50,14.60
2007,05,31,02,51,14.50
2007,05,31,02,52,14.40
2007,05,31,02,53,14.40
2007,05,31,02,54,14.40
2007,05,31,02,55,14.40
2007,05,31,02,56,14.40
2007,05,31,02,57,14.40
2007,05,31,02,58,14.40
2007,05,31,02,59,14.40
2007,05,31,03,00,14.40
2007,05,31,03,01,14.30
2007,05,31,03,02,14.30
2007,05,31,03,03,14.30
2007,05,31,03,04,14.20
2007,05,31,03,05,14.20
2007,05,31,03,06,14.10
2007,05,31,03,07,14.10
2007,05,31,03,08,14.10
2007,05,31,03,09,14.10
2007,05,31,03,10,14.10
2007,05,31,03,11,14.10
2007,05,31,03,12,14.10
2007,05,31,03,13,14.10
2007,05,31,03,14,14.10
2007,05,31,03,15,14.00
2007,05,31,03,16,14.00
2007,05,31,03,17,14.00
2007,05,31,03,18,14.00
2007,05,31,03,19,14.00
2007,05,31,03,20,14.00
2007,05,31,03,21,14.00
2007,05,31,03,22,14.00
2007,05,31,03,23,13.90
2007,05,31,03,24,13.90
2007,05,31,03,25,13.90
2007,05,31,03,26,14.00
2007,05,31,03,27,14.10
2007,05,31,03,28,14.20
2007,05,31,03,29,14.30
2007,05,31,03,30,14.40
2007,05,31,03,31,14.50
2007,05,31,03,32,14.60
2007,05,31,03,33,14.70
2007,05,31,03,34,14.70
2007,05,31,03,35,14.80
2007,05,31,03,36,14.90
2007,05,31,03,37,14.90
2007,05,31,03,38,14.90
2007,05,31,03,39,14.80
2007,05,31,03,40,14.80
2007,05,31,03,41,14.80
2007,05,31,03,42,14.70
2007,05,31,03,43,14.70
2007,05,31,03,44,14.60
2007,05,31,03,45,14.60
2007,05,31,03,46,14.50
2007,05,31,03,47,14.50
2007,05,31,03,48,14.40
2007,05,31,03,49,14.50
2007,05,31,03,50,14.50
2007,05,31,03,51,14.50
2007,05,31,03,52,14.50
2007,05,31,03,53,14.60
2007,05,31,03,54,14.60
2007,05,31,03,55,14.70
2007,05,31,03,56,14.70
2007,05,31,03,57,14.70
2007,05,31,03,58,14.80
2007,05,31,03,59,14.80
2007,05,31,04,00,14.90
2007,05,31,04,01,15.00
2007,05,31,04,02,15.00
2007,05,31,04,03,15.00
2007,05,31,04,04,15.00
2007,05,31,04,05,15.00
2007,05,31,04,06,15.00
2007,05,31,04,07,15.00
2007,05,31,04,08,15.00
2007,05,31,04,09,15.00
2007,05,31,04,10,15.00
2007,05,31,04,11,15.00
2007,05,31,04,12,15.00
2007,05,31,04,13,15.00
2007,05,31,04,14,15.00
2007,05,31,04,15,15.00
2007,05,31,04,16,15.00
2007,05,31,04,17,15.00
2007,05,31,04,18,15.00
2007,05,31,04,19,15.00
2007,05,31,04,20,15.00
2007,05,31,04,21,15.00
2007,05,31,04,22,15.00
2007,05,31,04,23,15.00
2007,05,31,04,24,15.00
2007,05,31,04,25,15.00
2007,05,31,04,26,15.00
2007,05,31,04,27,15.00
2007,05,31,04,28,15.00
2007,05,31,04,29,15.00
2007,05,31,04,30,15.00
2007,05,31,04,31,15.00
2007,05,31,04,32,15.00
2007,05,31,04,33,15.00
2007,05,31,04,34,15.00
2007,05,31,04,35,15.00
2007,05,31,04,36,15.00
2007,05,31,04,37,15.00
2007,05,31,04,38,15.00
2007,05,31,04,39,15.00
2007,05,31,04,40,15.00
2007,05,31,04,41,15.00
2007,05,31,04,42,15.00
2007,05,31,04,43,15.00
2007,05,31,04,44,15.00
2007,05,31,04,45,15.00
2007,05,31,04,46,15.00
2007,05,31,04,47,15.00
2007,05,31,04,48,15.00
2007,05,31,04,49,14.90
2007,05,31,04,50,14.90
2007,05,31,04,51,14.90
2007,05,31,04,52,14.80
2007,05,31,04,53,14.80
2007,05,31,04,54,14.80
2007,05,31,04,55,14.80
2007,05,31,04,56,14.80
2007,05,31,04,57,14.70
2007,05,31,04,58,14.70
2007,05,31,04,59,14.70
2007,05,31,05,00,14.70
2007,05,31,05,01,14.70
2007,05,31,05,02,14.70
2007,05,31,05,03,14.70
2007,05,31,05,04,14.70
2007,05,31,05,05,14.70
2007,05,31,05,06,14.70
2007,05,31,05,07,14.70
2007,05,31,05,08,14.70
2007,05,31,05,09,14.70
2007,05,31,05,10,14.70
2007,05,31,05,11,14.70
2007,05,31,05,12,14.70
2007,05,31,05,13,14.70
2007,05,31,05,14,14.70
2007,05,31,05,15,14.70
2007,05,31,05,16,14.70
2007,05,31,05,17,14.70
2007,05,31,05,18,14.70
2007,05,31,05,19,14.70
2007,05,31,05,20,14.70
2007,05,31,05,21,14.70
2007,05,31,05,22,14.70
2007,05,31,05,23,14.70
2007,05,31,05,24,14.70
2007,05,31,05,25,14.70
2007,05,31,05,26,14.70
2007,05,31,05,27,14.70
2007,05,31,05,28,14.60
2007,05,31,05,29,14.60
2007,05,31,05,30,14.60
2007,05,31,05,31,14.60
2007,05,31,05,32,14.60
2007,05,31,05,33,14.50
2007,05,31,05,34,14.50
2007,05,31,05,35,14.50
2007,05,31,05,36,14.50
2007,05,31,05,37,14.40
2007,05,31,05,38,14.40
2007,05,31,05,39,14.40
2007,05,31,05,40,14.40
2007,05,31,05,41,14.40
2007,05,31,05,42,14.40
2007,05,31,05,43,14.30
2007,05,31,05,44,14.30
2007,05,31,05,45,14.30
2007,05,31,05,46,14.30
2007,05,31,05,47,14.30
2007,05,31,05,48,14.30
2007,05,31,05,49,14.30
2007,05,31,05,50,14.30
2007,05,31,05,51,14.30
2007,05,31,05,52,14.30
2007,05,31,05,53,14.30
2007,05,31,05,54,14.30
2007,05,31,05,55,14.30
2007,05,31,05,56,14.30
2007,05,31,05,57,14.30
2007,05,31,05,58,14.30
2007,05,31,05,59,14.30
2007,05,31,06,00,14.40
2007,05,31,06,01,14.40
2007,05,31,06,02,14.40
2007,05,31,06,03,14.40
2007,05,31,06,04,14.50
2007,05,31,06,05,14.50
2007,05,31,06,06,14.50
2007,05,31,06,07,14.60
2007,05,31,06,08,14.60
2007,05,31,06,09,14.60
2007,05,31,06,10,14.60
2007,05,31,06,11,14.70
2007,05,31,06,12,14.70
2007,05,31,06,13,14.70
2007,05,31,06,14,14.70
2007,05,31,06,15,14.80
2007,05,31,06,16,14.80
2007,05,31,06,17,14.80
2007,05,31,06,18,14.80
2007,05,31,06,19,14.90
2007,05,31,06,20,14.90
2007,05,31,06,21,15.00
2007,05,31,06,22,15.00
2007,05,31,06,23,15.00
2007,05,31,06,24,15.00
2007,05,31,06,25,15.00
2007,05,31,06,26,15.00
2007,05,31,06,27,15.00
2007,05,31,06,28,15.10
2007,05,31,06,29,15.20
2007,05,31,06,30,15.30
2007,05,31,06,31,15.30
2007,05,31,06,32,15.40
2007,05,31,06,33,15.40
2007,05,31,06,34,15.40
2007,05,31,06,35,15.50
2007,05,31,06,36,15.50
2007,05,31,06,37,15.60
2007,05,31,06,38,15.60
2007,05,31,06,39,15.60
2007,05,31,06,40,15.70
2007,05,31,06,41,15.70
2007,05,31,06,42,15.70
2007,05,31,06,43,15.70
2007,05,31,06,44,15.80
2007,05,31,06,45,15.80
2007,05,31,06,46,15.80
2007,05,31,06,47,15.80
2007,05,31,06,48,15.90
2007,05,31,06,49,15.90
2007,05,31,06,50,15.90
2007,05,31,06,51,16.00
2007,05,31,06,52,16.00
2007,05,31,06,53,16.10
2007,05,31,06,54,16.10
2007,05,31,06,55,16.10
2007,05,31,06,56,16.10
2007,05,31,06,57,16.10
2007,05,31,06,58,16.20
2007,05,31,06,59,16.20
2007,05,31,07,00,16.20
2007,05,31,07,01,16.20
2007,05,31,07,02,16.20
2007,05,31,07,03,16.20
2007,05,31,07,04,16.30
2007,05,31,07,05,16.30
2007,05,31,07,06,16.30
2007,05,31,07,07,16.30
2007,05,31,07,08,16.30
2007,05,31,07,09,16.30
2007,05,31,07,10,16.40
2007,05,31,07,11,16.40
2007,05,31,07,12,16.40
2007,05,31,07,13,16.50
2007,05,31,07,14,16.50
2007,05,31,07,15,16.60
2007,05,31,07,16,16.60
2007,05,31,07,17,16.60
2007,05,31,07,18,16.60
2007,05,31,07,19,16.60
2007,05,31,07,20,16.70
2007,05,31,07,21,16.70
2007,05,31,07,22,16.80
2007,05,31,07,23,16.80
2007,05,31,07,24,16.80
2007,05,31,07,25,16.90
2007,05,31,07,26,16.90
2007,05,31,07,27,17.00
2007,05,31,07,28,17.00
2007,05,31,07,29,17.00
2007,05,31,07,30,17.00
2007,05,31,07,31,17.10
2007,05,31,07,32,17.10
2007,05,31,07,33,17.10
2007,05,31,07,34,17.10
2007,05,31,07,35,17.10
2007,05,31,07,36,17.10
2007,05,31,07,37,17.10
2007,05,31,07,38,17.10
2007,05,31,07,39,17.10
2007,05,31,07,40,17.10
2007,05,31,07,41,17.20
2007,05,31,07,42,17.10
2007,05,31,07,43,17.10
2007,05,31,07,44,17.20
2007,05,31,07,45,17.20
2007,05,31,07,46,17.20
2007,05,31,07,47,17.20
2007,05,31,07,48,17.20
2007,05,31,07,49,17.20
2007,05,31,07,50,17.20
2007,05,31,07,51,17.20
2007,05,31,07,52,17.20
2007,05,31,07,53,17.30
2007,05,31,07,54,17.30
2007,05,31,07,55,17.30
2007,05,31,07,56,17.30
2007,05,31,07,57,17.30
2007,05,31,07,58,17.30
2007,05,31,07,59,17.40
2007,05,31,08,00,17.40
2007,05,31,08,01,17.50
2007,05,31,08,02,17.50
2007,05,31,08,03,17.60
2007,05,31,08,04,17.60
2007,05,31,08,05,17.70
2007,05,31,08,06,17.80
2007,05,31,08,07,17.80
2007,05,31,08,08,17.90
2007,05,31,08,09,17.90
2007,05,31,08,10,18.00
2007,05,31,08,11,18.00
2007,05,31,08,12,18.10
2007,05,31,08,13,18.10
2007,05,31,08,14,18.10
2007,05,31,08,15,18.10
2007,05,31,08,16,18.10
2007,05,31,08,17,18.10
2007,05,31,08,18,18.10
2007,05,31,08,19,18.20
2007,05,31,08,20,18.20
2007,05,31,08,21,18.30
2007,05,31,08,22,18.40
2007,05,31,08,23,18.40
2007,05,31,08,24,18.40
2007,05,31,08,25,18.50
2007,05,31,08,26,18.60
2007,05,31,08,27,18.60
2007,05,31,08,28,18.70
2007,05,31,08,29,18.70
2007,05,31,08,30,18.80
2007,05,31,08,31,18.80
2007,05,31,08,32,18.80
2007,05,31,08,33,18.90
2007,05,31,08,34,19.00
2007,05,31,08,35,19.10
2007,05,31,08,36,19.20
2007,05,31,08,37,19.20
2007,05,31,08,38,19.30
2007,05,31,08,39,19.30
2007,05,31,08,40,19.30
2007,05,31,08,41,19.30
2007,05,31,08,42,19.40
2007,05,31,08,43,19.40
2007,05,31,08,44,19.30
2007,05,31,08,45,19.30
2007,05,31,08,46,19.30
2007,05,31,08,47,19.30
2007,05,31,08,48,19.20
2007,05,31,08,49,19.30
2007,05,31,08,50,19.30
2007,05,31,08,51,19.30
2007,05,31,08,52,19.30
2007,05,31,08,53,19.30
2007,05,31,08,54,19.30
2007,05,31,08,55,19.30
2007,05,31,08,56,19.20
2007,05,31,08,57,19.30
2007,05,31,08,58,19.30
2007,05,31,08,59,19.30
2007,05,31,09,00,19.40
2007,05,31,09,01,19.40
2007,05,31,09,02,19.40
2007,05,31,09,03,19.40
2007,05,31,09,04,19.50
2007,05,31,09,05,19.60
2007,05,31,09,06,19.60
2007,05,31,09,07,19.60
2007,05,31,09,08,19.70
2007,05,31,09,09,19.60
2007,05,31,09,10,19.60
2007,05,31,09,11,19.50
2007,05,31,09,12,19.50
2007,05,31,09,13,19.40
2007,05,31,09,14,19.50
2007,05,31,09,15,19.50
2007,05,31,09,16,19.50
2007,05,31,09,17,19.60
2007,05,31,09,18,19.60
2007,05,31,09,19,19.50
2007,05,31,09,20,19.50
2007,05,31,09,21,19.60
2007,05,31,09,22,19.60
2007,05,31,09,23,19.60
2007,05,31,09,24,19.60
2007,05,31,09,25,19.60
2007,05,31,09,26,19.50
2007,05,31,09,27,19.40
2007,05,31,09,28,19.30
2007,05,31,09,29,19.30
2007,05,31,09,30,19.30
2007,05,31,09,31,19.30
2007,05,31,09,32,19.30
2007,05,31,09,33,19.30
2007,05,31,09,34,19.40
2007,05,31,09,35,19.40
2007,05,31,09,36,19.50
2007,05,31,09,37,19.50
2007,05,31,09,38,19.60
2007,05,31,09,39,19.60
2007,05,31,09,40,19.60
2007,05,31,09,41,19.60
2007,05,31,09,42,19.60
2007,05,31,09,43,19.60
2007,05,31,09,44,19.70
2007,05,31,09,45,19.70
2007,05,31,09,46,19.80
2007,05,31,09,47,19.80
2007,05,31,09,48,19.80
2007,05,31,09,49,19.80
2007,05,31,09,50,19.90
2007,05,31,09,51,19.90
2007,05,31,09,52,20.00
2007,05,31,09,53,20.00
2007,05,31,09,54,20.10
2007,05,31,09,55,20.10
2007,05,31,09,56,20.10
2007,05,31,09,57,20.10
2007,05,31,09,58,20.10
2007,05,31,09,59,20.10
2007,05,31,10,00,20.10
2007,05,31,10,01,20.20
2007,05,31,10,02,20.20
2007,05,31,10,03,20.30
2007,05,31,10,04,20.40
2007,05,31,10,05,20.40
2007,05,31,10,06,20.40
2007,05,31,10,07,20.40
2007,05,31,10,08,20.30
2007,05,31,10,09,20.30
2007,05,31,10,10,20.20
2007,05,31,10,11,20.10
2007,05,31,10,12,20.00
2007,05,31,10,13,19.90
2007,05,31,10,14,19.80
2007,05,31,10,15,19.70
2007,05,31,10,16,19.60
2007,05,31,10,17,19.50
2007,05,31,10,18,19.40
2007,05,31,10,19,19.30
2007,05,31,10,20,19.30
2007,05,31,10,21,19.30
2007,05,31,10,22,19.30
2007,05,31,10,23,19.30
2007,05,31,10,24,19.30
2007,05,31,10,25,19.30
2007,05,31,10,26,19.30
2007,05,31,10,27,19.30
2007,05,31,10,28,19.30
2007,05,31,10,29,19.30
2007,05,31,10,30,19.30
2007,05,31,10,31,19.40
2007,05,31,10,32,19.40
2007,05,31,10,33,19.40
2007,05,31,10,34,19.30
2007,05,31,10,35,19.30
2007,05,31,10,36,19.30
2007,05,31,10,37,19.20
2007,05,31,10,38,19.10
2007,05,31,10,39,19.10
2007,05,31,10,40,19.00
2007,05,31,10,41,19.00
2007,05,31,10,42,18.90
2007,05,31,10,43,18.90
2007,05,31,10,44,18.90
2007,05,31,10,45,18.90
2007,05,31,10,46,18.90
2007,05,31,10,47,18.90
2007,05,31,10,48,18.80
2007,05,31,10,49,18.80
2007,05,31,10,50,18.80
2007,05,31,10,51,18.80
2007,05,31,10,52,18.80
2007,05,31,10,53,18.80
2007,05,31,10,54,18.90
2007,05,31,10,55,18.90
2007,05,31,10,56,19.00
2007,05,31,10,57,19.10
2007,05,31,10,58,19.20
2007,05,31,10,59,19.30
2007,05,31,11,00,19.30
2007,05,31,11,01,19.30
2007,05,31,11,02,19.30
2007,05,31,11,03,19.40
2007,05,31,11,04,19.50
2007,05,31,11,05,19.60
2007,05,31,11,06,19.70
2007,05,31,11,07,19.80
2007,05,31,11,08,19.90
2007,05,31,11,09,20.00
2007,05,31,11,10,20.10
2007,05,31,11,11,20.20
2007,05,31,11,12,20.30
2007,05,31,11,13,20.40
2007,05,31,11,14,20.50
2007,05,31,11,15,20.50
2007,05,31,11,16,20.50
2007,05,31,11,17,20.50
2007,05,31,11,18,20.40
2007,05,31,11,19,20.30
2007,05,31,11,20,20.20
2007,05,31,11,21,20.20
2007,05,31,11,22,20.10
2007,05,31,11,23,19.90
2007,05,31,11,24,19.80
2007,05,31,11,25,19.60
2007,05,31,11,26,19.30
2007,05,31,11,27,19.20
2007,05,31,11,28,19.10
2007,05,31,11,29,19.10
2007,05,31,11,30,19.00
2007,05,31,11,31,18.90
2007,05,31,11,32,18.90
2007,05,31,11,33,18.80
2007,05,31,11,34,18.60
2007,05,31,11,35,18.60
2007,05,31,11,36,18.70
2007,05,31,11,37,18.80
2007,05,31,11,38,18.80
2007,05,31,11,39,18.90
2007,05,31,11,40,19.10
2007,05,31,11,41,19.30
2007,05,31,11,42,19.50
2007,05,31,11,43,19.60
2007,05,31,11,44,19.80
2007,05,31,11,45,19.90
2007,05,31,11,46,19.90
2007,05,31,11,47,19.90
2007,05,31,11,48,19.80
2007,05,31,11,49,19.80
2007,05,31,11,50,19.80
2007,05,31,11,51,19.70
2007,05,31,11,52,19.60
2007,05,31,11,53,19.50
2007,05,31,11,54,19.60
2007,05,31,11,55,19.60
2007,05,31,11,56,19.70
2007,05,31,11,57,19.80
2007,05,31,11,58,20.00
2007,05,31,11,59,20.10
2007,05,31,12,00,20.20
2007,05,31,12,01,20.20
2007,05,31,12,02,20.30
2007,05,31,12,03,20.20
2007,05,31,12,04,20.00
2007,05,31,12,05,19.80
2007,05,31,12,06,19.70
2007,05,31,12,07,19.70
2007,05,31,12,08,19.70
2007,05,31,12,09,19.70
2007,05,31,12,10,19.70
2007,05,31,12,11,19.70
2007,05,31,12,12,19.70
2007,05,31,12,13,19.70
2007,05,31,12,14,19.80
2007,05,31,12,15,19.80
2007,05,31,12,16,19.80
2007,05,31,12,17,19.80
2007,05,31,12,18,19.80
2007,05,31,12,19,19.80
2007,05,31,12,20,19.90
2007,05,31,12,21,20.00
2007,05,31,12,22,20.00
2007,05,31,12,23,20.00
2007,05,31,12,24,20.10
2007,05,31,12,25,20.20
2007,05,31,12,26,20.20
2007,05,31,12,27,20.30
2007,05,31,12,28,20.50
2007,05,31,12,29,20.50
2007,05,31,12,30,20.50
2007,05,31,12,31,20.40
2007,05,31,12,32,20.40
2007,05,31,12,33,20.40
2007,05,31,12,34,20.40
2007,05,31,12,35,20.40
2007,05,31,12,36,20.40
2007,05,31,12,37,20.50
2007,05,31,12,38,20.50
2007,05,31,12,39,20.40
2007,05,31,12,40,20.30
2007,05,31,12,41,20.20
2007,05,31,12,42,20.20
2007,05,31,12,43,20.10
2007,05,31,12,44,20.10
2007,05,31,12,45,20.10
2007,05,31,12,46,20.10
2007,05,31,12,47,20.10
2007,05,31,12,48,20.20
2007,05,31,12,49,20.20
2007,05,31,12,50,20.20
2007,05,31,12,51,20.30
2007,05,31,12,52,20.30
2007,05,31,12,53,20.30
2007,05,31,12,54,20.40
2007,05,31,12,55,20.50
2007,05,31,12,56,20.70
2007,05,31,12,57,20.80
2007,05,31,12,58,21.00
2007,05,31,12,59,21.00
2007,05,31,13,00,21.10
2007,05,31,13,01,21.00
2007,05,31,13,02,20.90
2007,05,31,13,03,20.90
2007,05,31,13,04,20.80
2007,05,31,13,05,20.60
2007,05,31,13,06,20.60
2007,05,31,13,07,20.50
2007,05,31,13,08,20.50
2007,05,31,13,09,20.60
2007,05,31,13,10,20.70
2007,05,31,13,11,20.70
2007,05,31,13,12,20.80
2007,05,31,13,13,21.10
2007,05,31,13,14,21.30
2007,05,31,13,15,21.50
2007,05,31,13,16,21.70
2007,05,31,13,17,21.80
2007,05,31,13,18,22.00
2007,05,31,13,19,22.10
2007,05,31,13,20,22.30
2007,05,31,13,21,22.30
2007,05,31,13,22,22.30
2007,05,31,13,23,22.30
2007,05,31,13,24,22.30
2007,05,31,13,25,22.20
2007,05,31,13,26,22.10
2007,05,31,13,27,22.00
2007,05,31,13,28,22.00
2007,05,31,13,29,22.00
2007,05,31,13,30,22.00
2007,05,31,13,31,22.10
2007,05,31,13,32,22.10
2007,05,31,13,33,22.20
2007,05,31,13,34,22.30
2007,05,31,13,35,22.30
2007,05,31,13,36,22.30
2007,05,31,13,37,22.30
2007,05,31,13,38,22.40
2007,05,31,13,39,22.30
2007,05,31,13,40,22.20
2007,05,31,13,41,22.10
2007,05,31,13,42,22.10
2007,05,31,13,43,22.10
2007,05,31,13,44,22.00
2007,05,31,13,45,21.80
2007,05,31,13,46,21.80
2007,05,31,13,47,21.70
2007,05,31,13,48,21.70
2007,05,31,13,49,21.70
2007,05,31,13,50,21.70
2007,05,31,13,51,21.70
2007,05,31,13,52,21.80
2007,05,31,13,53,21.70
2007,05,31,13,54,21.70
2007,05,31,13,55,21.70
2007,05,31,13,56,21.70
2007,05,31,13,57,21.70
2007,05,31,13,58,21.70
2007,05,31,13,59,21.70
2007,05,31,14,00,21.60
2007,05,31,14,01,21.60
2007,05,31,14,02,21.70
2007,05,31,14,03,21.70
2007,05,31,14,04,21.70
2007,05,31,14,05,21.60
2007,05,31,14,06,21.70
2007,05,31,14,07,21.70
2007,05,31,14,08,21.80
2007,05,31,14,09,21.90
2007,05,31,14,10,22.00
2007,05,31,14,11,22.00
2007,05,31,14,12,22.10
2007,05,31,14,13,22.20
2007,05,31,14,14,22.20
2007,05,31,14,15,22.20
2007,05,31,14,16,22.10
2007,05,31,14,17,22.20
2007,05,31,14,18,22.20
2007,05,31,14,19,22.30
2007,05,31,14,20,22.30
2007,05,31,14,21,22.30
2007,05,31,14,22,22.10
2007,05,31,14,23,22.00
2007,05,31,14,24,21.80
2007,05,31,14,25,21.80
2007,05,31,14,26,21.80
2007,05,31,14,27,21.90
2007,05,31,14,28,21.90
2007,05,31,14,29,22.00
2007,05,31,14,30,22.10
2007,05,31,14,31,22.30
2007,05,31,14,32,22.40
2007,05,31,14,33,22.70
2007,05,31,14,34,22.80
2007,05,31,14,35,22.90
2007,05,31,14,36,22.90
2007,05,31,14,37,22.90
2007,05,31,14,38,22.90
2007,05,31,14,39,22.90
2007,05,31,14,40,22.90
2007,05,31,14,41,23.00
2007,05,31,14,42,23.10
2007,05,31,14,43,23.10
2007,05,31,14,44,23.10
2007,05,31,14,45,23.00
2007,05,31,14,46,22.90
2007,05,31,14,47,22.80
2007,05,31,14,48,22.70
2007,05,31,14,49,22.60
2007,05,31,14,50,22.50
2007,05,31,14,51,22.30
2007,05,31,14,52,22.20
2007,05,31,14,53,22.10
2007,05,31,14,54,22.10
2007,05,31,14,55,22.10
2007,05,31,14,56,22.10
2007,05,31,14,57,22.10
2007,05,31,14,58,22.20
2007,05,31,14,59,22.30
2007,05,31,15,00,22.30
2007,05,31,15,01,22.40
2007,05,31,15,02,22.40
2007,05,31,15,03,22.40
2007,05,31,15,04,22.50
2007,05,31,15,05,22.70
2007,05,31,15,06,22.80
2007,05,31,15,07,22.80
2007,05,31,15,08,22.90
2007,05,31,15,09,23.00
2007,05,31,15,10,23.10
2007,05,31,15,11,23.00
2007,05,31,15,12,23.00
2007,05,31,15,13,23.00
2007,05,31,15,14,23.10
2007,05,31,15,15,23.30
2007,05,31,15,16,23.50
2007,05,31,15,17,23.70
2007,05,31,15,18,23.80
2007,05,31,15,19,23.90
2007,05,31,15,20,23.90
2007,05,31,15,21,23.90
2007,05,31,15,22,24.10
2007,05,31,15,23,24.20
2007,05,31,15,24,24.30
2007,05,31,15,25,24.20
2007,05,31,15,26,24.10
2007,05,31,15,27,24.00
2007,05,31,15,28,23.90
2007,05,31,15,29,23.90
2007,05,31,15,30,23.90
2007,05,31,15,31,23.70
2007,05,31,15,32,23.60
2007,05,31,15,33,23.60
2007,05,31,15,34,23.40
2007,05,31,15,35,23.30
2007,05,31,15,36,23.30
2007,05,31,15,37,23.40
2007,05,31,15,38,23.50
2007,05,31,15,39,23.70
2007,05,31,15,40,23.80
2007,05,31,15,41,23.70
2007,05,31,15,42,23.70
2007,05,31,15,43,23.60
2007,05,31,15,44,23.70
2007,05,31,15,45,23.60
2007,05,31,15,46,23.60
2007,05,31,15,47,23.60
2007,05,31,15,48,23.50
2007,05,31,15,49,23.50
2007,05,31,15,50,23.50
2007,05,31,15,51,23.60
2007,05,31,15,52,23.80
2007,05,31,15,53,23.80
2007,05,31,15,54,23.80
2007,05,31,15,55,23.70
2007,05,31,15,56,23.70
2007,05,31,15,57,23.70
2007,05,31,15,58,23.80
2007,05,31,15,59,23.80
2007,05,31,16,00,23.70
2007,05,31,16,01,23.60
2007,05,31,16,02,23.60
2007,05,31,16,03,23.50
2007,05,31,16,04,23.40
2007,05,31,16,05,23.20
2007,05,31,16,06,23.00
2007,05,31,16,07,22.90
2007,05,31,16,08,22.80
2007,05,31,16,09,22.80
2007,05,31,16,10,22.90
2007,05,31,16,11,23.00
2007,05,31,16,12,23.10
2007,05,31,16,13,23.00
2007,05,31,16,14,23.00
2007,05,31,16,15,23.00
2007,05,31,16,16,22.90
2007,05,31,16,17,22.90
2007,05,31,16,18,22.90
2007,05,31,16,19,22.80
2007,05,31,16,20,22.80
2007,05,31,16,21,22.70
2007,05,31,16,22,22.70
2007,05,31,16,23,22.70
2007,05,31,16,24,22.60
2007,05,31,16,25,22.50
2007,05,31,16,26,22.40
2007,05,31,16,27,22.40
2007,05,31,16,28,22.30
2007,05,31,16,29,22.30
2007,05,31,16,30,22.30
2007,05,31,16,31,22.30
2007,05,31,16,32,22.30
2007,05,31,16,33,22.40
2007,05,31,16,34,22.50
2007,05,31,16,35,22.60
2007,05,31,16,36,22.70
2007,05,31,16,37,22.70
2007,05,31,16,38,22.60
2007,05,31,16,39,22.60
2007,05,31,16,40,22.60
2007,05,31,16,41,22.60
2007,05,31,16,42,22.60
2007,05,31,16,43,22.40
2007,05,31,16,44,22.30
2007,05,31,16,45,22.20
2007,05,31,16,46,22.20
2007,05,31,16,47,22.10
2007,05,31,16,48,22.10
2007,05,31,16,49,22.10
2007,05,31,16,50,22.20
2007,05,31,16,51,22.20
2007,05,31,16,52,22.10
2007,05,31,16,53,22.00
2007,05,31,16,54,22.00
2007,05,31,16,55,22.00
2007,05,31,16,56,21.90
2007,05,31,16,57,21.80
2007,05,31,16,58,21.80
2007,05,31,16,59,21.80
2007,05,31,17,00,21.80
2007,05,31,17,01,21.70
2007,05,31,17,02,21.60
2007,05,31,17,03,21.60
2007,05,31,17,04,21.50
2007,05,31,17,05,21.50
2007,05,31,17,06,21.40
2007,05,31,17,07,21.40
2007,05,31,17,08,21.40
2007,05,31,17,09,21.50
2007,05,31,17,10,21.60
2007,05,31,17,11,21.70
2007,05,31,17,12,21.80
2007,05,31,17,13,21.90
2007,05,31,17,14,22.00
2007,05,31,17,15,22.10
2007,05,31,17,16,22.20
2007,05,31,17,17,22.30
2007,05,31,17,18,22.30
2007,05,31,17,19,22.30